STARLINK-36818

Last updated on Tue Mar 24 2026 00:02:05 GMT+0000 (Coordinated Universal Time)

1 67879U 26035A 26082.54751446 .00041259 00000+0 27652-3 0 9992 2 67879 97.2857 15.6102 0001985 133.8024 226.3406 15.75157908 6025
UTC large
Height (km)
Speed (km/s)
/
Latitude / Longitude
Inclination (degrees)
Orbital Period (minutes)
Azimuth
Elevation
Range (km)
Doppler Factor

Next 0 passes for location: London (51.5072 / 0.1276)

Sorry there are no passes over London.